GW5652 Weather Reports


Display with metric or nautical units.
time (UTC)temp
F
wind
direction
speed
MPH
gust
MPH
rain 1hr
in
rain 24hr
in
rain mn
in
humidity
%
barometer
mb
20260507040324 53 251 12.0 24.0 0.00 0.00 0.00 81 1021.4
20260507035820 53 308 15.0 23.0 0.00 0.00 0.00 81 1021.0
20260507035316 53 294 17.0 20.0 0.00 0.00 0.00 81 1021.1
20260507034814 53 269 7.0 24.0 0.00 0.00 0.00 82 1021.1
20260507034310 53 300 10.0 18.0 0.00 0.00 0.00 82 1020.8
20260507033809 53 314 12.0 24.0 0.00 0.00 0.00 81 1020.8
20260507033306 53 280 14.0 28.0 0.00 0.00 0.00 81 1021.2
20260507032803 53 310 12.0 20.0 0.00 0.00 0.00 81 1021.1
20260507032259 53 286 10.0 19.0 0.00 0.00 0.00 81 1020.9
20260507031755 53 269 10.0 22.0 0.00 0.00 0.00 81 1021.0
20260507031252 54 292 12.0 13.0 0.00 0.00 0.00 80 1021.1
20260507030749 54 293 4.0 17.0 0.00 0.00 0.00 80 1020.8
20260507030246 54 263 15.0 19.0 0.00 0.00 0.00 80 1021.1
20260507025743 54 324 15.0 32.0 0.00 0.00 0.00 79 1021.1
20260507025240 54 286 7.0 15.0 0.00 0.00 0.00 80 1021.2
20260507024739 54 312 12.0 19.0 0.00 0.00 0.00 80 1021.4
20260507024236 54 276 10.0 23.0 0.00 0.00 0.00 80 1021.2
20260507023731 55 276 7.0 14.0 0.00 0.00 0.00 80 1020.9
20260507023229 55 287 9.0 30.0 0.00 0.00 0.00 79 1021.0
20260507022726 55 281 9.0 19.0 0.00 0.00 0.00 79 1021.0
20260507022221 55 291 5.0 26.0 0.00 0.00 0.00 78 1020.9
20260507021718 56 313 20.0 22.0 0.00 0.00 0.00 77 1020.9
20260507021213 56 304 17.0 28.0 0.00 0.00 0.00 76 1021.0
20260507020712 56 303 8.0 21.0 0.00 0.00 0.00 76 1021.0
20260507020208 57 296 14.0 22.0 0.00 0.00 0.00 76 1020.9
20260507015706 57 300 10.0 18.0 0.00 0.00 0.00 76 1021.0
20260507015203 57 293 11.0 24.0 0.00 0.00 0.00 75 1021.0
20260507014659 57 308 19.0 21.0 0.00 0.00 0.00 75 1021.0
20260507014155 57 289 8.0 20.0 0.00 0.00 0.00 75 1021.0
20260507013653 57 279 9.0 25.0 0.00 0.00 0.00 75 1020.9
20260507013149 57 302 17.0 25.0 0.00 0.00 0.00 75 1021.2
20260507012647 58 296 7.0 25.0 0.00 0.00 0.00 75 1021.1
20260507012142 58 308 17.0 21.0 0.00 0.00 0.00 74 1021.2
20260507011641 58 291 20.0 23.0 0.00 0.00 0.00 74 1021.0
20260507011137 58 299 13.0 28.0 0.00 0.00 0.00 74 1020.9
20260507010631 58 268 18.0 20.0 0.00 0.00 0.00 74 1021.2
20260507010128 59 285 11.0 24.0 0.00 0.00 0.00 72 1020.8
20260507005625 59 250 9.0 16.0 0.00 0.00 0.00 72 1020.9
20260507005121 59 301 13.0 25.0 0.00 0.00 0.00 73 1021.1
20260507004618 59 299 13.0 27.0 0.00 0.00 0.00 72 1021.2
20260507004116 59 279 10.0 22.0 0.00 0.00 0.00 72 1021.1
20260507003612 59 276 13.0 29.0 0.00 0.00 0.00 72 1021.0
20260507003107 60 287 9.0 18.0 0.00 0.00 0.00 71 1021.1
20260507002604 60 281 12.0 22.0 0.00 0.00 0.00 71 1021.2
20260507002059 60 321 15.0 23.0 0.00 0.00 0.00 70 1021.0
20260507001556 60 291 12.0 22.0 0.00 0.00 0.00 71 1020.9
20260507001054 60 305 18.0 30.0 0.00 0.00 0.00 70 1021.0
20260507000550 60 294 12.0 20.0 0.00 0.00 0.00 70 1021.0
20260507000045 61 296 13.0 22.0 0.00 0.00 0.00 70 1020.8
20260506235543 60 264 14.0 22.0 0.00 0.00 0.00 70 1020.9
20260506235038 60 301 17.0 33.0 0.00 0.00 0.00 70 1020.9
20260506234536 61 290 18.0 26.0 0.00 0.00 0.00 69 1021.0
20260506234033 61 308 12.0 25.0 0.00 0.00 0.00 69 1021.0
20260506233530 61 305 19.0 25.0 0.00 0.00 0.00 69 1020.8
20260506233027 60 305 15.0 24.0 0.00 0.00 0.00 70 1021.1
20260506232523 61 317 13.0 21.0 0.00 0.00 0.00 69 1021.0
20260506232018 61 305 13.0 24.0 0.00 0.00 0.00 68 1021.0
20260506231516 61 290 11.0 27.0 0.00 0.00 0.00 69 1021.1
20260506231014 62 302 12.0 28.0 0.00 0.00 0.00 69 1021.0
20260506230510 62 310 14.0 30.0 0.00 0.00 0.00 69 1021.0
20260506230008 62 308 24.0 27.0 0.00 0.00 0.00 68 1021.2
20260506225504 63 303 7.0 18.0 0.00 0.00 0.00 67 1020.9
20260506225000 63 308 9.0 18.0 0.00 0.00 0.00 68 1021.1
20260506224457 62 310 9.0 22.0 0.00 0.00 0.00 68 1020.8
20260506223954 63 317 19.0 19.0 0.00 0.00 0.00 67 1021.2
20260506223450 64 312 16.0 22.0 0.00 0.00 0.00 66 1021.2
20260506222947 64 305 14.0 16.0 0.00 0.00 0.00 66 1021.1
20260506222444 64 308 11.0 16.0 0.00 0.00 0.00 67 1021.2
20260506221940 65 306 9.0 12.0 0.00 0.00 0.00 66 1021.2
20260506221437 64 271 16.0 17.0 0.00 0.00 0.00 67 1021.2
20260506220936 64 299 10.0 15.0 0.00 0.00 0.00 66 1021.2
20260506220431 64 302 11.0 21.0 0.00 0.00 0.00 65 1021.1
20260506215927 64 295 4.0 15.0 0.00 0.00 0.00 67 1020.9
20260506215424 64 318 8.0 13.0 0.00 0.00 0.00 67 1021.0
20260506214920 64 266 4.0 19.0 0.00 0.00 0.00 65 1021.3
20260506214417 66 309 9.0 14.0 0.00 0.00 0.00 66 1021.0
20260506213914 65 247 6.0 10.0 0.00 0.00 0.00 65 1021.1
20260506213412 65 316 5.0 11.0 0.00 0.00 0.00 68 1021.1
20260506212909 64 294 11.0 12.0 0.00 0.00 0.00 67 1021.1
20260506212405 64 311 7.0 16.0 0.00 0.00 0.00 68 1021.3
20260506211859 64 288 7.0 13.0 0.00 0.00 0.00 70 1021.1
20260506211356 65 320 4.0 13.0 0.00 0.00 0.00 68 1021.1
20260506210853 64 287 6.0 9.0 0.00 0.00 0.00 70 1021.3
20260506210350 64 257 5.0 14.0 0.00 0.00 0.00 67 1021.2
20260506205847 64 232 5.0 11.0 0.00 0.00 0.00 68 1021.1
20260506205343 64 284 4.0 9.0 0.00 0.00 0.00 67 1021.2
20260506204840 64 241 9.0 12.0 0.00 0.00 0.00 68 1021.3
20260506204337 64 263 3.0 9.0 0.00 0.00 0.00 68 1021.4
20260506203835 63 250 6.0 8.0 0.00 0.00 0.00 67 1021.3
20260506203332 64 307 5.0 11.0 0.00 0.00 0.00 68 1021.3
20260506202829 63 290 5.0 10.0 0.00 0.00 0.00 69 1021.2
20260506202326 64 280 6.0 10.0 0.00 0.00 0.00 69 1021.1
20260506201822 63 308 6.0 10.0 0.00 0.00 0.00 69 1021.3
20260506201320 63 287 9.0 16.0 0.00 0.00 0.00 72 1021.3
20260506200816 63 321 4.0 11.0 0.00 0.00 0.00 70 1021.4
20260506200312 63 279 9.0 13.0 0.00 0.00 0.00 70 1021.6
20260506195809 64 303 2.0 13.0 0.00 0.00 0.00 68 1021.6
20260506195306 64 295 7.0 12.0 0.00 0.00 0.00 70 1021.5
20260506194803 62 303 3.0 9.0 0.00 0.00 0.00 70 1021.6
20260506194259 62 284 8.0 15.0 0.00 0.00 0.00 70 1021.5
20260506193757 63 292 6.0 10.0 0.00 0.00 0.00 71 1021.5
20260506193254 63 316 3.0 5.0 0.00 0.00 0.00 72 1021.4
20260506192750 62 320 3.0 6.0 0.00 0.00 0.00 74 1021.6
20260506192247 63 218 0.0 5.0 0.00 0.00 0.00 72 1021.4
20260506191743 63 326 1.0 4.0 0.00 0.00 0.00 72 1021.4
20260506191240 62 272 3.0 7.0 0.00 0.00 0.00 73 1021.5
20260506190737 65 86 1.0 4.0 0.00 0.00 0.00 68 1021.4
20260506190233 62 190 2.0 6.0 0.00 0.00 0.00 73 1021.5
20260506185731 62 43 0.0 4.0 0.00 0.00 0.00 75 1021.5
20260506185227 61 323 5.0 8.0 0.00 0.00 0.00 76 1021.2
20260506184725 60 311 1.0 5.0 0.00 0.00 0.00 77 1021.4
20260506184222 60 97 0.0 3.0 0.00 0.00 0.00 76 1021.4
20260506183719 60 350 2.0 6.0 0.00 0.00 0.00 76 1021.5
20260506183214 61 307 6.0 6.0 0.00 0.00 0.00 77 1021.5
20260506182712 59 311 1.0 5.0 0.00 0.00 0.00 79 1021.4
20260506182209 59 271 4.0 7.0 0.00 0.00 0.00 80 1021.6
20260506181707 58 297 5.0 9.0 0.00 0.00 0.00 80 1021.5
20260506181204 58 295 8.0 9.0 0.00 0.00 0.00 81 1021.5
20260506180701 59 311 4.0 5.0 0.00 0.00 0.00 82 1021.6
20260506180157 59 320 4.0 7.0 0.00 0.00 0.00 81 1021.4
20260506175653 60 322 0.0 3.0 0.00 0.00 0.00 76 1021.8
20260506175150 61 163 4.0 5.0 0.00 0.00 0.00 76 1021.4
20260506174643 61 136 0.0 6.0 0.00 0.00 0.00 76 1021.4
20260506174139 61 173 0.0 3.0 0.00 0.00 0.00 76 1021.5
20260506173637 59 83 3.0 9.0 0.00 0.00 0.00 79 1021.4
20260506173133 60 131 3.0 8.0 0.00 0.00 0.00 78 1021.2
20260506172630 60 288 3.0 7.0 0.00 0.00 0.00 78 1021.2
20260506172126 58 85 2.0 5.0 0.00 0.00 0.00 79 1021.3
20260506171624 57 145 4.0 5.0 0.00 0.00 0.00 81 1021.4
20260506171122 57 195 3.0 7.0 0.00 0.00 0.00 83 1021.6
20260506170619 56 204 2.0 5.0 0.00 0.00 0.00 84 1021.6
20260506170116 55 268 4.0 6.0 0.00 0.00 0.00 85 1021.7
20260506165615 56 161 6.0 8.0 0.00 0.00 0.00 84 1021.6
20260506165110 56 166 2.0 3.0 0.00 0.00 0.00 85 1021.6
20260506164608 55 136 5.0 10.0 0.00 0.00 0.00 87 1021.4
20260506164105 54 156 4.0 8.0 0.00 0.00 0.00 87 1021.3
20260506163601 55 151 5.0 8.0 0.00 0.00 0.00 87 1021.5
20260506163057 54 200 3.0 4.0 0.00 0.00 0.00 88 1021.7
20260506162553 55 184 1.0 4.0 0.00 0.00 0.00 87 1021.7
20260506162051 55 176 0.0 4.0 0.00 0.00 0.00 87 1021.6
20260506161548 55 143 5.0 5.0 0.00 0.00 0.00 85 1021.4
20260506161045 55 168 3.0 5.0 0.00 0.00 0.00 86 1021.4
20260506160543 55 170 2.0 4.0 0.00 0.00 0.00 86 1021.4
20260506160039 55 321 0.0 3.0 0.00 0.00 0.00 83 1021.4
20260506155538 55 120 1.0 4.0 0.00 0.00 0.00 83 1021.2
20260506153714 54 147 4.0 7.0 0.00 0.00 0.00 82 1020.9
20260506153212 54 166 0.0 2.0 0.00 0.00 0.00 83 1020.9
20260506152709 54 243 0.0 4.0 0.00 0.00 0.00 84 1021.1
20260506152206 53 262 3.0 5.0 0.00 0.00 0.00 83 1021.1
20260506151706 53 315 2.0 8.0 0.00 0.00 0.00 84 1021.3
20260506151201 53 276 2.0 5.0 0.00 0.00 0.00 84 1021.2
20260506150658 53 254 3.0 7.0 0.00 0.00 0.00 85 1021.5
20260506150155 53 279 7.0 7.0 0.00 0.00 0.00 85 1021.5
20260506145652 53 338 2.0 9.0 0.00 0.00 0.00 86 1021.4
20260506145148 52 284 3.0 7.0 0.00 0.00 0.00 86 1021.4
20260506144646 52 268 6.0 9.0 0.00 0.00 0.00 86 1021.5
20260506144143 52 298 6.0 10.0 0.00 0.00 0.00 86 1021.4
20260506143641 52 321 3.0 7.0 0.00 0.00 0.00 87 1021.5
20260506143138 52 302 10.0 10.0 0.00 0.00 0.00 86 1021.3
20260506142637 52 303 7.0 11.0 0.00 0.00 0.00 86 1021.1
20260506142134 52 288 3.0 8.0 0.00 0.00 0.00 87 1020.9
20260506141631 52 338 1.0 3.0 0.00 0.00 0.00 89 1021.0
20260506141130 53 311 0.0 2.0 0.00 0.00 0.00 91 1020.9
20260506140627 52 327 3.0 4.0 0.00 0.00 0.00 92 1020.6
20260506140124 52 142 3.0 5.0 0.00 0.00 0.00 91 1020.4
20260506135621 52 128 1.0 2.0 0.00 0.00 0.00 92 1020.6
20260506135117 52 127 2.0 3.0 0.00 0.00 0.00 92 1020.3
20260506134614 52 147 2.0 3.0 0.00 0.00 0.00 92 1020.4
20260506134110 52 129 0.0 3.0 0.00 0.00 0.00 91 1020.4
20260506133608 52 137 2.0 5.0 0.00 0.00 0.00 91 1020.3
20260506133104 52 197 1.0 2.0 0.00 0.00 0.00 91 1020.4
20260506132601 52 181 1.0 2.0 0.00 0.00 0.00 91 1020.2
20260506132058 51 169 0.0 3.0 0.00 0.00 0.00 91 1020.2
20260506131555 51 190 1.0 3.0 0.00 0.00 0.00 90 1020.2
20260506131052 51 157 1.0 2.0 0.00 0.00 0.00 90 1020.3
20260506130549 51 152 0.0 2.0 0.00 0.00 0.00 90 1020.2
20260506130046 51 247 2.0 3.0 0.00 0.00 0.00 90 1020.1
20260506125544 51 230 3.0 5.0 0.00 0.00 0.00 90 1020.1
20260506125042 51 192 2.0 4.0 0.00 0.00 0.00 89 1020.0
20260506124539 51 239 2.0 4.0 0.00 0.00 0.00 89 1020.0
20260506124037 51 221 2.0 6.0 0.00 0.00 0.00 89 1019.8
20260506123535 51 213 0.0 4.0 0.00 0.00 0.00 89 1019.9
20260506123033 51 257 5.0 6.0 0.00 0.00 0.00 89 1019.9
20260506122529 51 234 3.0 6.0 0.00 0.00 0.00 88 1020.0
20260506122028 51 269 4.0 9.0 0.00 0.00 0.00 88 1019.9
20260506121525 51 338 6.0 9.0 0.00 0.00 0.00 88 1020.0
20260506121020 52 248 7.0 8.0 0.00 0.00 0.00 88 1020.0
20260506120519 52 274 6.0 11.0 0.00 0.00 0.00 88 1020.0
20260506120016 52 229 4.0 11.0 0.00 0.00 0.00 88 1020.2
20260506115514 52 263 8.0 10.0 0.00 0.00 0.00 88 1020.1
20260506115012 52 255 4.0 10.0 0.00 0.00 0.00 88 1019.8
20260506114509 52 308 4.0 12.0 0.00 0.00 0.00 87 1019.8
20260506114008 52 268 6.0 13.0 0.00 0.00 0.00 87 1019.7
20260506113505 52 309 7.0 13.0 0.00 0.00 0.00 87 1019.6
20260506113001 52 279 6.0 22.0 0.00 0.00 0.00 87 1019.6
20260506112459 52 308 5.0 13.0 0.00 0.00 0.00 87 1019.5
20260506111956 52 316 7.0 13.0 0.00 0.00 0.00 87 1019.6
20260506111454 52 294 7.0 11.0 0.00 0.00 0.00 87 1019.4
20260506110950 52 298 5.0 15.0 0.00 0.00 0.00 88 1019.2
20260506110449 52 355 1.0 11.0 0.00 0.00 0.00 88 1019.5
20260506105945 52 283 9.0 14.0 0.00 0.00 0.00 88 1019.3
20260506105441 52 343 5.0 14.0 0.00 0.00 0.00 88 1019.2
20260506104938 52 267 6.0 14.0 0.00 0.00 0.00 88 1019.4
20260506104437 52 301 4.0 15.0 0.00 0.00 0.00 88 1018.8
20260506103935 52 296 6.0 19.0 0.00 0.00 0.00 88 1019.1
20260506103432 52 300 5.0 16.0 0.00 0.00 0.00 89 1018.9
20260506102929 52 303 13.0 16.0 0.00 0.00 0.00 89 1018.7
20260506102427 52 301 11.0 13.0 0.00 0.00 0.00 90 1018.8
20260506101924 52 286 6.0 18.0 0.00 0.00 0.00 90 1018.7
20260506101420 52 307 6.0 15.0 0.00 0.00 0.00 90 1018.9
20260506100917 52 301 6.0 13.0 0.00 0.00 0.00 90 1018.7
20260506100415 52 300 7.0 11.0 0.00 0.00 0.00 91 1018.7
20260506095913 51 305 7.0 10.0 0.00 0.00 0.00 91 1018.8
20260506095412 51 289 10.0 12.0 0.00 0.00 0.00 91 1018.7
20260506094907 51 311 9.0 13.0 0.00 0.00 0.00 91 1018.6
20260506094406 51 284 5.0 10.0 0.00 0.00 0.00 91 1018.6
20260506093903 51 306 3.0 10.0 0.00 0.00 0.00 92 1018.5
20260506093401 51 274 5.0 9.0 0.00 0.00 0.00 92 1018.4
20260506092859 51 313 5.0 7.0 0.00 0.00 0.00 92 1018.6
20260506092356 51 306 6.0 11.0 0.00 0.00 0.00 92 1018.5
20260506091852 51 290 3.0 8.0 0.00 0.00 0.00 92 1018.4
20260506091351 51 286 4.0 8.0 0.00 0.00 0.00 92 1018.6
20260506090848 51 309 3.0 7.0 0.00 0.00 0.00 91 1018.6
20260506090345 51 276 3.0 8.0 0.00 0.00 0.00 91 1018.5
20260506085842 51 309 10.0 10.0 0.00 0.00 0.00 91 1018.4
20260506085338 51 310 6.0 11.0 0.00 0.00 0.00 91 1018.6
20260506084835 51 303 7.0 9.0 0.00 0.00 0.00 91 1018.4
20260506084332 51 309 3.0 9.0 0.00 0.00 0.00 91 1018.4
20260506083828 51 307 5.0 9.0 0.00 0.00 0.00 91 1018.3
20260506083326 51 272 3.0 5.0 0.00 0.00 0.00 91 1018.5
20260506082823 51 305 3.0 5.0 0.00 0.00 0.00 91 1018.4
20260506082319 51 318 2.0 3.0 0.00 0.00 0.00 91 1018.3
20260506081816 51 313 0.0 2.0 0.00 0.00 0.00 91 1018.5
20260506081314 51 202 0.0 3.0 0.00 0.00 0.00 90 1018.1
20260506080811 51 335 0.0 3.0 0.00 0.00 0.00 90 1018.2
20260506080307 52 249 2.0 4.0 0.00 0.00 0.00 90 1018.2
20260506073252 52 295 4.0 9.0 0.00 0.00 0.00 89 1018.2
20260506072749 52 278 3.0 5.0 0.00 0.00 0.00 89 1018.1
20260506072246 52 293 3.0 5.0 0.00 0.00 0.00 88 1018.0
20260506071744 52 268 3.0 10.0 0.00 0.00 0.00 89 1017.9
20260506071241 52 263 3.0 7.0 0.00 0.00 0.00 88 1017.9
20260506070738 52 266 3.0 7.0 0.00 0.00 0.00 88 1017.9
20260506070235 52 298 4.0 8.0 0.00 0.00 0.00 88 1017.9
20260506062212 53 303 9.0 13.0 0.00 0.00 0.00 87 1017.8
20260506061708 53 306 11.0 12.0 0.00 0.00 0.00 87 1017.8
20260506061206 53 308 6.0 10.0 0.00 0.00 0.00 87 1017.8
20260506060704 53 318 9.0 10.0 0.00 0.00 0.00 87 1017.7
20260506060200 53 310 5.0 10.0 0.00 0.00 0.00 86 1017.6
20260506051132 55 312 16.0 16.0 0.00 0.00 0.00 84 1017.6
20260506050631 55 316 8.0 11.0 0.00 0.00 0.00 84 1017.3
20260506050128 55 299 8.0 15.0 0.00 0.00 0.00 84 1017.3
20260506045121 55 295 9.0 14.0 0.00 0.00 0.00 84 1017.3
20260506044619 55 280 8.0 18.0 0.00 0.00 0.00 84 1017.1
20260506044115 55 297 8.0 15.0 0.00 0.00 0.00 84 1017.2
20260506043613 55 285 6.0 15.0 0.00 0.00 0.00 84 1017.2
20260506043111 55 287 5.0 15.0 0.00 0.00 0.00 84 1017.0
20260506042610 55 285 9.0 14.0 0.00 0.00 0.00 84 1016.9
20260506042107 55 284 5.0 15.0 0.00 0.00 0.00 84 1017.0
20260506041606 55 276 6.0 10.0 0.00 0.00 0.00 83 1016.8
20260506041102 55 290 9.0 12.0 0.00 0.00 0.00 82 1016.8